Oak Island, NC

3:33 PM EST on February 11, 2016 (GMT -0500)
Brunswick County

Weather History for KSUT - October, 2013

Change the Weather History Date:

Monday, October 7, 2013

  Actual Average (KILM) Record (KILM)
Temperature  
Mean Temperature 76 °F 68 °F  
Max Temperature 80 °F 78 °F 91 °F (1911)
Min Temperature 71 °F 58 °F 38 °F (1935)
Degree Days  
Heating Degree Days 0 2  
Month to date heating degree days 8  
Since 1 July heating degree days 13  
Cooling Degree Days 10 4  
Month to date cooling degree days 36  
Year to date cooling degree days 1953  
Growing Degree Days 26 (Base 50)    
Moisture  
Dew Point 72 °F    
Average Humidity 88    
Maximum Humidity 97    
Minimum Humidity 76    
Precipitation  
Precipitation 0.37 in 0.15 in 6.34 in (2005)
Month to date precipitation 1.18  
Year to date precipitation 47.99  
Sea Level Pressure  
Sea Level Pressure 29.90 in    
Wind  
Wind Speed 5 mph (SSE)    
Max Wind Speed 14 mph    
Max Gust Speed 22 mph    
Visibility 9 miles    
Events Rain    
T = Trace of Precipitation, MM = Missing Value Source: NWS Daily Summary

Daily Weather History Graph

Daily Weather History Graph

Search for Another Location

Airport or City:

Trip Planner

Search our weather history database for the weather conditions in past years. The results will help you decide how hot, cold, wet, or windy it might be!

Date:

Astronomy

Oct. 07, 2013 Rise Set
Actual Time 7:11 AM EDT 6:48 PM EDT
Civil Twilight 6:46 AM EDT 7:13 PM EDT
Nautical Twilight 6:17 AM EDT 7:42 PM EDT
Astronomical Twilight 5:48 AM EDT 8:11 PM EDT
Moon 9:50 AM EDT (10/7) 8:40 PM EDT (10/7)
Length of Visible Light 12h 26m
Length of Day
11h 36m
Waxing Crescent, 8% of the Moon is Illuminated
Oct 7
Waxing Crescent
Oct 11
First Quarter
Oct 18
Full
Oct 26
Last Quarter
Nov 3
New

Hourly Weather History & Observations

Time (EDT) Temp. Heat Index Dew Point Humidity Pressure Visibility Wind Dir Wind Speed Gust Speed Precip Events Conditions
12:15 AM 77.0 °F - 72.9 °F 87% 29.97 in 10.0 mi South 5.8 mph - N/A   Scattered Clouds
12:35 AM 76.6 °F - 72.9 °F 88% 29.96 in 10.0 mi SSE 6.9 mph - N/A   Scattered Clouds
12:55 AM 77.0 °F - 72.5 °F 86% 29.95 in 10.0 mi South 4.6 mph - N/A   Scattered Clouds
1:15 AM 76.6 °F - 72.5 °F 87% 29.95 in 10.0 mi South 5.8 mph - N/A   Clear
1:35 AM 77.0 °F - 72.5 °F 86% 29.95 in 10.0 mi South 6.9 mph - N/A   Scattered Clouds
1:55 AM 76.8 °F - 72.7 °F 87% 29.95 in 10.0 mi SSE 4.6 mph - N/A   Scattered Clouds
2:15 AM 76.6 °F - 72.0 °F 85% 29.94 in 10.0 mi SSE 4.6 mph - N/A   Clear
2:35 AM 76.3 °F - 71.6 °F 85% 29.94 in 10.0 mi SSE 5.8 mph - N/A   Clear
2:55 AM 76.5 °F - 71.4 °F 84% 29.93 in 10.0 mi SSE 6.9 mph - N/A   Clear
3:15 AM 76.1 °F - 71.2 °F 85% 29.93 in 10.0 mi SSE 4.6 mph - N/A   Clear
3:35 AM 76.1 °F - 71.6 °F 86% 29.93 in 10.0 mi South 5.8 mph - N/A   Clear
3:55 AM 76.1 °F - 71.4 °F 85% 29.92 in 10.0 mi SSE 5.8 mph - N/A   Scattered Clouds
4:15 AM 76.5 °F - 71.2 °F 84% 29.92 in 10.0 mi SSE 4.6 mph - N/A   Scattered Clouds
4:35 AM 76.1 °F - 70.9 °F 84% 29.92 in 10.0 mi South 5.8 mph - N/A   Clear
4:55 AM 76.5 °F - 71.2 °F 84% 29.92 in 10.0 mi SSE 5.8 mph - N/A   Scattered Clouds
5:15 AM 76.3 °F - 71.4 °F 85% 29.92 in 10.0 mi SSE 5.8 mph - N/A   Scattered Clouds
5:35 AM 76.1 °F - 71.1 °F 84% 29.91 in 10.0 mi SSE 5.8 mph - N/A   Scattered Clouds
5:55 AM 76.1 °F - 70.9 °F 84% 29.92 in 10.0 mi SSE 5.8 mph - N/A   Clear
6:15 AM 76.1 °F - 70.9 °F 84% 29.91 in 10.0 mi SSE 4.6 mph - N/A   Clear
6:35 AM 76.1 °F - 70.9 °F 84% 29.91 in 10.0 mi South 5.8 mph - N/A   Clear
6:55 AM 76.3 °F - 71.1 °F 84% 29.92 in 10.0 mi SSE 5.8 mph - N/A   Scattered Clouds
7:15 AM 76.1 °F - 71.1 °F 84% 29.91 in 10.0 mi South 5.8 mph - N/A   Clear
7:35 AM 76.6 °F - 71.4 °F 84% 29.92 in 10.0 mi South 5.8 mph - N/A   Clear
7:55 AM 77.4 °F - 71.6 °F 82% 29.91 in 10.0 mi SSE 6.9 mph - N/A   Clear
8:15 AM 79.3 °F - 72.5 °F 79% 29.92 in 10.0 mi SSE 4.6 mph - N/A   Clear
8:35 AM 79.3 °F - 72.0 °F 78% 29.91 in 10.0 mi SSE 8.1 mph - N/A   Clear
8:55 AM 80.8 °F 85.2 °F 72.7 °F 76% 29.92 in 10.0 mi SSE 8.1 mph - N/A   Scattered Clouds
9:15 AM 79.7 °F - 71.6 °F 76% 29.92 in 10.0 mi SSE 5.8 mph - N/A   Scattered Clouds
9:35 AM 79.2 °F - 72.0 °F 78% 29.93 in 10.0 mi South 8.1 mph - N/A   Scattered Clouds
9:55 AM 79.5 °F - 72.9 °F 80% 29.93 in 7.0 mi South 9.2 mph - N/A   Scattered Clouds
10:15 AM 78.4 °F - 72.7 °F 82% 29.93 in 7.0 mi SSE 5.8 mph - N/A   Scattered Clouds
10:35 AM 78.6 °F - 72.9 °F 82% 29.93 in 10.0 mi SSE 13.8 mph 21.9 mph N/A   Mostly Cloudy
10:55 AM 76.1 °F - 70.7 °F 83% 29.92 in 10.0 mi SSE 5.8 mph - N/A   Scattered Clouds
11:15 AM 76.1 °F - 72.3 °F 88% 29.92 in 4.0 mi SSE 5.8 mph 17.3 mph 0.01 in Rain Light Rain
11:35 AM 76.8 °F - 73.4 °F 89% 29.92 in 7.0 mi South 5.8 mph - 0.01 in   Mostly Cloudy
11:55 AM 77.5 °F - 73.4 °F 87% 29.93 in 7.0 mi South 5.8 mph - 0.01 in   Overcast
12:15 PM 77.9 °F - 72.3 °F 83% 29.93 in 10.0 mi South 6.9 mph - N/A   Mostly Cloudy
12:35 PM 79.2 °F - 72.9 °F 81% 29.92 in 10.0 mi South 6.9 mph - N/A   Scattered Clouds
12:55 PM 78.4 °F - 72.5 °F 82% 29.90 in 10.0 mi South 5.8 mph - N/A   Scattered Clouds
1:15 PM 78.8 °F - 72.5 °F 81% 29.90 in 10.0 mi South 5.8 mph - N/A   Scattered Clouds
1:35 PM 79.3 °F - 72.9 °F 80% 29.88 in 10.0 mi South 5.8 mph - N/A   Clear
1:55 PM 77.0 °F - 72.9 °F 87% 29.86 in 7.0 mi SSE 3.5 mph - 0.01 in Rain Light Rain
2:15 PM 77.2 °F - 73.0 °F 87% 29.87 in 7.0 mi South 3.5 mph - N/A   Scattered Clouds
2:35 PM 77.4 °F - 72.7 °F 85% 29.87 in 10.0 mi Calm Calm - N/A   Mostly Cloudy
2:55 PM 77.2 °F - 73.0 °F 87% 29.87 in 5.0 mi SE 3.5 mph - N/A Rain Light Rain
3:15 PM 76.1 °F - 73.0 °F 90% 29.87 in 7.0 mi Calm Calm - N/A Rain Light Rain
3:35 PM 75.7 °F - 73.0 °F 91% 29.87 in 1.5 mi West 6.9 mph - 0.10 in Rain Heavy Rain
3:55 PM 73.8 °F - 72.1 °F 95% 29.88 in 4.0 mi Calm Calm - 0.14 in Rain Rain
4:15 PM 73.9 °F - 72.3 °F 95% 29.86 in 5.0 mi Calm Calm - N/A   Drizzle
4:35 PM 74.3 °F - 72.7 °F 95% 29.87 in 4.0 mi Calm Calm - 0.01 in Rain Rain
4:55 PM 74.8 °F - 73.4 °F 95% 29.87 in 5.0 mi Calm Calm - 0.03 in Rain Light Rain
5:15 PM 74.5 °F - 73.2 °F 96% 29.87 in 1.0 mi Calm Calm - 0.06 in Rain Heavy Rain
5:35 PM 74.5 °F - 72.7 °F 94% 29.87 in 7.0 mi Calm Calm - 0.07 in   Overcast
5:55 PM 74.3 °F - 72.5 °F 94% 29.88 in 7.0 mi Calm Calm - 0.15 in Rain Light Rain
6:15 PM 74.3 °F - 72.7 °F 95% 29.88 in 10.0 mi Calm Calm - N/A   Mostly Cloudy
6:35 PM 72.9 °F - 71.4 °F 95% 29.88 in 10.0 mi North 5.8 mph - N/A   Overcast
6:55 PM 72.9 °F - 71.6 °F 96% 29.87 in 10.0 mi North 3.5 mph - N/A   Mostly Cloudy
7:15 PM 72.1 °F - 70.9 °F 96% 29.88 in 10.0 mi NNW 5.8 mph - 0.01 in   Drizzle
7:35 PM 71.6 °F - 70.2 °F 95% 29.87 in 10.0 mi NE 4.6 mph - 0.03 in Rain Light Rain
7:55 PM 72.5 °F - 71.1 °F 95% 29.86 in 10.0 mi East 4.6 mph - 0.03 in   Scattered Clouds
8:15 PM 72.5 °F - 70.7 °F 94% 29.85 in 10.0 mi East 3.5 mph - N/A   Clear
8:35 PM 72.5 °F - 70.7 °F 94% 29.85 in 10.0 mi East 4.6 mph - N/A   Clear
8:55 PM 73.4 °F - 71.6 °F 94% 29.85 in 10.0 mi East 4.6 mph - N/A   Clear
9:15 PM 73.4 °F - 71.8 °F 95% 29.87 in 10.0 mi Calm Calm - N/A   Clear
9:35 PM 73.4 °F - 71.8 °F 95% 29.88 in 7.0 mi Calm Calm - N/A   Scattered Clouds
9:55 PM 72.7 °F - 71.6 °F 96% 29.89 in 10.0 mi North 4.6 mph - N/A   Mostly Cloudy
10:15 PM 72.5 °F - 71.1 °F 95% 29.89 in 10.0 mi North 6.9 mph - N/A   Mostly Cloudy
10:35 PM 71.8 °F - 70.7 °F 96% 29.90 in 10.0 mi North 6.9 mph - N/A   Mostly Cloudy
10:55 PM 71.2 °F - 70.3 °F 97% 29.90 in 10.0 mi Calm Calm - N/A   Mostly Cloudy
11:15 PM 71.8 °F - 70.9 °F 97% 29.89 in 10.0 mi North 4.6 mph - N/A   Mostly Cloudy
11:35 PM 72.0 °F - 71.1 °F 97% 29.88 in 5.0 mi North 3.5 mph - N/A   Light Drizzle
11:55 PM 72.3 °F - 71.4 °F 97% 29.88 in 7.0 mi NNE 4.6 mph - N/A   Mostly Cloudy